Theta_e
302 303 307 307 307 307 308 308 308 309 310 309 310 311 311 311 311 313 312 312 312 313 313 314 314 313 312 312 312 313 314 315 315 315 315 312 310 308 304 302 302 303 304 304
306 305 309 310 309 307 307 308 309 309 308 308 308 308 309 309 310 310 310 310 310 310 310 310 310 312 311 312 312 311 312 315 315 316 316 316 315 310 306 303 302 303 304 304
309 310 310 309 310 307 308 309 310 310 310 308 307 308 310 309 310 309 309 309 309 309 309 309 310 310 310 310 311 311 311 312 314 315 313 311 310 307 304 302 302 303 303 303
308 310 309 311 309 309 308 309 309 309 308 308 308 308 311 311 310 311 311 310 309 309 308 308 308 308 309 308 309 310 310 310 312 312 312 313 315 310 309 307 304 303 303 303
309 307 306 307 311 307 307 307 308 307 307 308 308 305 310 310 309 310 310 310 309 309 309 308 308 307 307 307 307 308 308 309 310 311 312 312 312 312 310 306 304 302 303 303
307 305 303 306 308 308 306 305 303 304 305 309 308 309 311 312 314 314 313 310 309 309 308 307 306 306 306 305 306 306 306 307 307 308 310 311 311 311 308 306 304 302 302 303
307 308 304 300 302 302 306 305 308 308 307 308 310 309 310 312 310 310 310 310 309 307 308 307 307 306 304 305 305 305 305 305 306 306 307 308 309 310 310 310 307 303 302 303
304 309 308 305 302 305 303 306 312 313 315 312 310 307 311 311 310 310 308 307 306 307 307 304 303 302 302 303 304 306 305 305 305 305 305 306 306 307 308 309 308 305 302 303
298 302 303 301 301 303 305 304 306 308 308 307 310 307 309 309 308 308 307 307 305 303 302 301 300 300 300 301 302 304 305 305 305 304 304 304 305 305 306 308 307 305 303 302
295 298 301 300 299 300 302 303 304 305 307 310 310 311 312 312 310 306 304 303 302 301 300 299 299 298 298 299 300 302 303 304 304 304 303 304 304 304 305 305 306 306 304 302
294 295 298 300 300 302 301 302 304 306 306 310 311 312 305 306 305 304 302 301 300 299 298 298 297 297 297 297 298 299 301 302 303 302 302 303 303 303 303 303 304 305 305 302
292 293 296 296 301 298 299 301 303 306 306 306 308 311 304 304 303 303 301 299 298 298 297 296 295 295 295 295 296 296 297 299 301 301 302 302 302 302 302 302 303 304 305 303
291 291 293 294 301 296 298 298 302 302 304 307 309 307 303 303 302 301 300 298 297 296 295 294 294 293 293 293 294 294 295 296 298 299 300 301 301 301 301 301 302 302 303 303
290 290 290 292 293 293 294 297 298 302 303 304 305 306 305 303 302 300 298 297 295 294 293 292 291 290 290 290 292 293 294 295 296 297 298 300 300 301 301 301 301 301 302 302
289 288 289 291 291 291 294 297 297 298 304 303 304 305 307 305 301 297 296 295 293 291 290 289 288 287 287 288 290 291 294 295 295 296 297 297 298 299 299 300 300 300 301 302
289 289 289 288 290 293 294 296 297 299 299 303 302 303 300 298 297 295 293 292 290 288 287 286 286 285 284 285 287 289 292 293 295 295 295 296 296 297 298 298 299 299 300 301
289 289 289 290 291 292 293 296 297 297 294 295 301 298 296 297 292 291 290 289 287 286 285 284 283 283 281 283 285 289 291 293 294 294 295 295 295 296 297 297 298 298 299 300
289 289 289 292 289 293 295 293 293 294 292 291 292 292 293 292 288 287 286 286 284 284 283 282 282 280 281 283 285 285 290 292 294 294 295 295 295 295 296 296 297 298 298 299
289 288 288 288 291 291 293 292 292 293 292 290 290 290 290 289 288 286 285 284 283 282 281 280 280 280 281 283 283 285 287 288 291 294 294 295 295 294 295 296 296 297 297 298
287 288 288 289 288 290 292 289 290 292 293 290 289 289 288 290 292 287 284 283 282 281 281 281 281 280 281 282 282 283 284 287 288 288 290 292 294 295 295 295 295 296 297 297
287 288 287 288 288 289 290 289 290 293 292 289 288 287 287 287 285 284 283 282 281 279 279 279 280 282 283 282 282 283 283 285 284 284 287 289 291 293 294 295 295 295 296 296
287 287 288 287 286 286 289 288 289 289 289 289 287 286 285 285 283 282 282 281 281 280 279 279 278 279 280 280 281 282 283 283 283 284 287 289 290 289 291 294 295 295 295 295
287 287 287 286 287 289 288 288 288 286 287 286 285 283 281 282 281 281 280 280 279 279 278 279 279 278 279 280 280 280 281 282 283 283 283 283 284 288 290 291 293 293 295 294
287 288 287 287 288 289 288 287 284 283 283 281 280 279 279 279 279 278 278 278 277 276 277 277 278 278 278 278 279 279 279 280 281 282 283 283 283 283 284 285 289 293 293 293
287 288 287 288 288 288 287 285 283 282 280 280 279 279 278 277 276 276 276 276 275 276 276 276 276 276 277 277 277 278 278 279 280 280 281 282 283 283 283 283 283 284 286 290
287 287 288 288 288 287 287 284 281 280 280 277 276 276 276 274 274 274 274 274 274 274 275 275 276 276 276 277 277 277 277 278 278 279 279 280 281 282 282 283 284 284 284 284
Wind_Speed
19 9 21 27 27 29 27 28 31 28 14 7 19 29 28 25 29 22 30 32 35 37 37 36 32 34 34 39 40 43 45 46 48 50 50 48 46 42 41 39 38 36 34 31
12 24 35 25 24 26 28 30 32 26 22 16 19 33 29 27 27 31 33 36 40 41 40 41 42 40 39 40 45 42 48 49 50 52 53 52 48 45 44 43 40 37 35 35
29 35 22 23 24 26 29 29 30 27 18 18 17 32 34 28 31 39 42 44 41 41 42 43 37 36 39 42 46 48 52 54 52 51 53 52 48 45 46 45 43 41 41 36
25 40 26 22 27 27 25 28 24 21 12 16 9 18 26 20 22 18 18 29 34 36 36 35 32 30 38 44 44 48 49 53 55 53 55 58 58 57 53 49 47 45 40 36
26 21 18 26 35 19 22 8 17 18 19 19 23 9 22 3 10 11 15 24 28 26 24 24 23 25 28 34 40 45 49 51 53 57 57 57 59 57 53 52 51 47 43 41
34 20 8 19 17 20 9 10 2 5 10 13 30 18 31 18 24 20 11 8 9 3 5 10 10 15 20 25 33 37 43 49 52 54 56 58 59 59 56 51 52 49 46 44
20 29 26 7 10 6 18 12 7 7 6 12 21 16 27 3 6 14 11 5 3 3 5 5 5 7 10 17 25 30 37 43 47 51 52 56 57 58 58 54 50 52 50 47
8 10 24 22 26 15 22 21 10 14 14 17 16 11 22 16 16 17 3 7 7 6 2 6 7 6 4 7 14 19 25 33 39 45 49 52 53 55 56 54 51 50 52 49
8 10 13 13 12 21 16 19 29 12 11 4 8 14 20 16 15 5 6 1 8 7 8 10 11 11 8 3 5 13 17 25 29 36 40 44 48 49 54 54 50 48 47 49
8 17 14 7 5 14 20 6 13 10 9 14 12 20 13 7 9 6 6 8 11 11 12 13 14 14 13 9 4 4 9 14 21 26 32 39 44 47 50 51 52 50 45 47
14 7 15 8 5 13 10 11 7 5 12 10 9 9 5 5 7 7 8 9 10 11 12 14 14 15 16 15 12 7 2 6 13 19 24 29 35 39 44 47 49 48 45 45
12 7 12 25 24 4 4 11 18 8 10 11 14 11 6 8 9 9 9 10 12 13 14 15 16 18 18 17 16 12 9 4 4 10 16 23 28 33 38 42 46 47 43 43
6 8 13 17 8 16 8 21 20 18 17 12 9 13 8 9 9 9 9 12 13 14 16 17 19 21 20 19 18 16 11 5 3 3 9 14 21 25 31 36 40 43 43 42
15 8 11 12 19 17 20 19 22 14 10 16 19 21 9 8 9 8 9 12 14 16 18 19 20 20 20 20 21 19 17 12 7 2 3 7 12 17 23 29 34 39 40 41
11 14 17 19 25 24 22 21 18 16 15 17 24 23 23 8 9 7 8 11 14 17 19 20 20 20 21 21 21 21 20 17 12 7 6 4 7 11 15 21 26 31 35 38
14 14 15 21 23 23 22 19 20 18 18 22 24 23 11 10 10 9 11 12 15 17 18 19 20 21 23 23 22 21 20 18 15 11 7 2 5 9 13 17 22 25 28 33
17 11 13 21 19 18 12 8 7 7 11 8 7 11 15 6 10 13 11 13 15 16 17 18 19 20 21 22 21 22 22 19 17 15 11 7 3 2 8 14 17 20 23 28
9 9 8 10 12 13 4 11 7 5 8 11 9 12 11 12 17 16 14 13 15 15 16 16 16 18 20 19 19 19 20 21 20 18 16 13 9 4 2 7 13 18 22 26
7 9 9 5 11 17 5 11 7 7 3 8 10 12 10 15 14 15 14 14 14 14 15 15 15 17 21 22 20 19 20 21 20 20 20 18 16 12 7 3 7 13 18 22
13 10 6 9 9 9 9 17 18 8 2 7 8 10 13 4 2 4 11 11 11 12 12 14 16 19 22 24 23 21 23 22 22 22 21 21 19 17 14 10 7 7 12 17
9 8 7 9 9 9 11 20 22 6 7 5 7 9 12 6 5 6 8 8 9 10 11 13 15 16 18 20 20 21 22 23 24 22 19 19 19 18 17 16 13 10 8 10
12 9 9 7 11 9 23 19 11 4 14 5 4 6 6 5 6 8 9 10 11 11 11 13 14 15 16 17 18 18 18 19 19 19 19 19 19 19 18 17 16 13 13 11
12 9 8 7 9 16 24 12 8 8 10 2 4 4 6 6 7 9 10 11 13 14 14 15 16 17 18 17 18 19 19 19 19 19 19 17 15 16 18 19 18 18 15 12
10 14 8 11 10 11 15 7 7 6 4 5 4 5 5 7 8 9 10 11 13 13 16 18 18 19 19 20 19 20 22 22 22 21 20 21 20 18 16 16 15 17 18 18
14 15 13 15 15 20 15 11 8 7 6 8 8 8 8 10 11 11 12 13 14 17 19 20 22 22 23 23 23 24 26 27 27 26 25 25 24 24 23 20 18 16 13 15
17 18 13 13 18 11 16 6 11 10 9 8 9 10 9 10 13 14 16 16 19 21 22 24 25 26 26 27 28 30 31 31 31 32 32 31 31 30 28 27 26 19 18 18
Wind_Direction
196 213 223 220 219 237 249 261 270 271 273 266 262 269 264 264 262 259 254 253 252 252 251 248 244 242 239 223 220 214 219 223 220 217 216 215 215 215 216 217 217 217 216 217
196 226 233 233 235 233 240 249 257 267 260 251 266 272 273 267 264 258 255 252 251 250 247 247 243 234 233 229 224 213 217 225 222 222 222 222 219 219 219 217 217 216 217 217
225 242 237 233 232 233 233 239 249 252 259 259 261 277 275 266 249 247 251 253 254 250 248 245 244 234 226 227 225 227 222 226 224 223 219 217 216 218 216 216 216 216 215 215
246 252 256 243 234 226 239 234 252 260 264 251 224 276 272 280 276 259 248 248 250 251 249 251 247 236 225 226 229 227 224 227 226 221 220 219 218 216 219 219 218 218 219 215
234 252 245 234 234 211 237 265 243 243 236 252 252 250 279 286 268 254 254 246 250 256 253 248 246 239 234 230 228 228 225 224 226 225 223 221 220 221 220 217 217 216 213 214
267 246 288 264 258 226 228 225 151 245 232 235 244 230 277 259 257 268 288 278 288 248 267 249 254 243 236 230 229 229 227 224 224 226 224 223 222 218 219 219 217 215 213 214
274 251 249 240 239 246 204 192 208 214 209 236 247 219 242 135 208 297 284 272 220 297 302 310 292 274 257 225 223 223 222 219 220 225 224 223 223 222 222 223 220 216 214 213
298 294 228 216 226 214 201 200 207 224 228 246 234 220 237 238 260 271 307 281 290 280 352 22 18 7 324 238 220 217 215 212 215 222 224 223 222 221 222 225 224 221 219 217
300 281 335 332 279 239 205 223 230 280 281 266 259 241 268 278 258 281 30 47 71 57 47 41 29 32 28 8 225 216 213 210 211 217 215 214 217 215 221 224 226 225 223 220
298 306 289 317 270 248 252 310 225 226 235 238 246 259 264 234 245 70 38 44 44 38 37 40 37 37 38 39 50 194 210 214 210 213 212 214 219 218 222 224 225 226 224 223
306 312 300 296 223 247 205 238 245 255 239 247 248 241 9 19 41 77 64 50 41 40 37 39 40 41 42 47 51 60 115 203 206 212 213 213 215 214 218 221 226 227 225 223
335 279 315 294 296 331 311 274 243 250 236 241 256 258 71 83 76 84 78 65 53 49 46 43 42 43 41 42 47 51 60 74 209 217 215 214 214 214 217 219 226 228 227 225
332 341 324 329 150 27 11 323 328 312 272 273 246 242 115 110 96 76 77 63 50 42 43 40 39 39 40 38 41 41 45 70 133 192 213 212 210 210 214 218 224 228 227 226
330 296 298 277 294 297 297 299 299 295 282 265 253 264 194 158 130 96 74 65 51 41 39 36 35 34 36 37 36 38 39 48 55 90 178 208 210 213 217 218 226 230 228 226
316 295 290 280 287 291 277 284 299 289 281 251 259 263 273 198 117 77 68 64 53 37 33 32 27 25 28 34 35 38 43 47 56 84 121 125 212 213 220 218 223 227 229 228
295 286 295 287 287 284 282 279 283 279 278 263 259 259 82 67 67 45 42 49 54 39 28 24 24 24 24 26 30 31 38 48 54 59 65 93 191 196 206 216 222 226 228 227
293 282 295 287 298 299 282 298 313 317 18 329 336 354 341 96 59 35 23 34 42 38 28 22 19 19 22 23 26 28 35 39 47 55 55 56 65 205 218 215 216 223 228 229
300 301 294 296 304 273 66 27 35 27 45 15 5 356 10 59 67 53 36 31 32 30 27 22 18 18 22 27 34 30 35 37 40 42 40 41 38 32 292 238 231 226 224 226
320 325 309 287 311 297 63 10 344 331 53 28 3 1 347 128 114 53 35 36 33 28 24 21 20 21 25 28 30 30 36 38 37 37 36 30 26 18 13 331 263 246 238 233
330 316 286 302 320 308 29 354 328 312 184 26 13 9 360 342 325 39 18 21 23 24 21 23 22 18 23 24 23 23 25 24 30 32 30 28 22 12 10 3 343 287 256 249
322 309 309 309 312 278 8 349 333 319 14 23 19 13 17 31 29 345 358 12 19 18 14 16 14 15 11 12 14 13 13 15 17 17 19 18 18 12 10 6 359 343 307 272
291 295 287 307 298 270 6 344 342 316 322 310 345 12 9 9 348 343 343 343 348 351 355 360 6 3 2 3 2 5 7 5 2 0 1 1 354 359 1 3 1 3 350 326
278 267 302 283 275 307 307 290 297 310 298 308 311 342 344 332 334 333 332 334 332 334 340 343 349 349 348 351 351 351 352 349 347 346 348 348 348 337 333 338 344 350 351 349
268 267 252 267 264 278 298 272 286 293 286 294 307 315 330 319 316 316 318 321 326 326 329 330 336 335 335 335 337 339 337 336 335 333 332 331 330 333 330 324 325 321 327 328
270 287 261 260 273 277 257 257 250 253 259 272 284 290 297 304 306 309 307 309 309 311 315 316 321 321 320 320 323 325 327 327 325 323 322 319 318 319 320 321 324 321 315 307
260 259 257 261 272 267 279 269 264 267 263 265 277 284 293 297 298 302 301 301 304 304 304 304 304 305 306 307 310 312 313 314 314 312 311 310 310 309 310 309 304 304 305 304